This is the latest recevied weather packets stored in our database for station/object N5ATR. If no packets are shown the sender has not sent any weather packets the latest 10 day(s).
| Time | Temp. | Humidity | Pressure | Rain* | Wind** | Luminosity | Snow |
|---|---|---|---|---|---|---|---|
| 1787964409 | 27.78° C | 31% | 1024 hPa | 0 mm | - | 16 W/m² | - |
| 1787964104 | 27.78° C | 31% | 1023.9 hPa | 0 mm | - | 19 W/m² | - |
| 1787963803 | 27.78° C | 31% | 1024.1 hPa | 0 mm | - | 42 W/m² | - |
| 1787963498 | 27.78° C | 30% | 1024.1 hPa | 0 mm | - | 23 W/m² | - |
| 1787963194 | 28.33° C | 29% | 1024.2 hPa | 0 mm | - | 26 W/m² | - |
| 1787962893 | 28.89° C | 29% | 1024.4 hPa | 0 mm | - | 30 W/m² | - |
| 1787962592 | 29.44° C | 28% | 1024 hPa | 0 mm | - | 57 W/m² | - |
| 1787962292 | 28.89° C | 30% | 1024.4 hPa | 0 mm | - | 87 W/m² | - |
| 1787961987 | 28.33° C | 31% | 1024.1 hPa | 0 mm | - | 99 W/m² | - |
| 1787961681 | 28.33° C | 32% | 1024.5 hPa | 0 mm | - | 93 W/m² | - |
| 1787961381 | 28.89° C | 30% | 1024.1 hPa | 0 mm | - | 67 W/m² | - |
| 1787961080 | 28.89° C | 30% | 1024.1 hPa | 0 mm | - | 127 W/m² | - |
| 1787960779 | 27.78° C | 33% | 1024.4 hPa | 0 mm | - | 59 W/m² | - |
| 1787960474 | 27.78° C | 32% | 1024.4 hPa | 0 mm | - | 61 W/m² | - |
| 1787960174 | 28.33° C | 33% | 1024.5 hPa | 0 mm | - | 64 W/m² | - |
| 1787959868 | 28.89° C | 30% | 1024.2 hPa | 0 mm | - | 63 W/m² | - |
| 1787959563 | 29.44° C | 30% | 1024.5 hPa | 0 mm | - | 158 W/m² | - |
| 1787959258 | 29.44° C | 29% | 1024.2 hPa | 0 mm | - | 292 W/m² | - |
| 1787958958 | 28.89° C | 30% | 1024 hPa | 0 mm | - | 192 W/m² | - |
| 1787958654 | 29.44° C | 28% | 1024.2 hPa | 0 mm | - | 103 W/m² | - |
| 1787958349 | 30° C | 26% | 1024.1 hPa | 0 mm | - | 114 W/m² | - |
| 1787958045 | 30.56° C | 25% | 1024.4 hPa | 0 mm | - | 316 W/m² | - |
| 1787957743 | 30.56° C | 25% | 1024.2 hPa | 0 mm | - | 386 W/m² | - |
| 1787957439 | 30.56° C | 26% | 1024.2 hPa | 0 mm | - | 406 W/m² | - |
| 1787957138 | 30° C | 27% | 1024.2 hPa | 0 mm | - | 419 W/m² | - |
* Rain latest hour (hover to see other rain measurements)
** Current wind speed in m/s (hover to see current wind gust speed)